カタログに戻る

COSMOS 1823 DEB

運用中LEO
NORAD 39830·DEBRIS·🇷🇺 Russia

打ち上げ Feb 20, 1987 から Plesetsk Cosmodrome

Loading…

次のパス (今後24時間)

TLE

経年Source: Space-Track

元期: Sep 11, 2026, 04:00 UTC

1 39830U 87020FE  26254.16701143  .00000170  00000-0  12747-2 0  9993
2 39830  73.5980 163.8978 0030826   2.0975 358.0196 12.47570552558212

AllMySatでCOSMOS 1823 DEBをリアルタイム追跡

Download on the App Store